Погода в Авке

Нигерия     6°12′34″N   7°04′40″E
темп.,
°C
ветер,
м/с
пор.,
м/с
влажн.,
%
обл.,
%
осадки,
мм/ч
давл.,
гПа
погр.,
м
15 мая, сб
сб1501:00+25юз249192 0.9 1010142
04:00+24зюз119693 1.6 101025
07:00+24зюз129590 5.3 1012106
10:00+25ююз128994 0.0 1013205
13:00+29зюз2169100 0.0 1010767
16:00+29юз1173100 0.0 100860
19:00+25ю2385100 0.0 100866
22:00+25ю2281100 0.0 101030
16 мая, вс
вс1601:00+24ююз2790100 1.1 1011221
04:00+23ю1297100 5.3 101080
07:00+24з1496100 5.6 1010234
10:00+25юв129099 0.0 1012313
13:00+29ююв346994 0.0 10101027
16:00+30юз246670 0.0 10081022
19:00+27юз2579100 0.0 1009114
22:00+26ююз3887100 0.0 1012402
17 мая, пн
пн1701:00+24ююз389224 0.0 1011296
04:00+23ю2595100 0.0 1010167
07:00+24ююз1591100 0.0 1011252
10:00+28юз2474100 0.0 1013788
13:00+31ююз2362100 0.1 10111265
16:00+29ююв227496 0.1 100966
19:00+27ююз367796 0.1 1010196
22:00+26ююз388570 0.0 1012332
18 мая, вт
вт1801:00+25юз2791100 0.0 1011300
04:00+24юз269199 0.0 1011293
07:00+24юз1592100 0.0 1012240
10:00+30юз236559 0.0 10141187
13:00+31ю335976 0.9 10121237
16:00+30ю4467100 2.2 10101077
19:00+26ююз2587100 2.9 1011130
22:00+25юз2592100 0.0 1013157
19 мая, ср
ср1901:00+24ююз249648 0.0 1012116
04:00+24юз3797100 0.0 1011301
07:00+24юз159478 0.0 1013271
10:00+29юз346735 0.0 1014999
13:00+33ююз235028 0.0 10111645
16:00+34ю224596 0.0 10081948
19:00+29ююз3769100 0.1 1010272
22:00+27ююз3878100 0.0 1012376